Vorticity
8 7 6 5 6 7 7 7 9 9 9 7 8 7 8 9 8 8 11 11 12 9 9 9 9 6 5 6 6 9 1 2 -2 13 -3 -18 -4 -16 1 21 4 6 -4 9 10
8 9 9 8 8 8 8 8 7 8 7 8 7 8 8 9 9 7 9 9 10 9 9 9 9 6 5 7 4 7 2 -3 3 7 3 -8 -5 -11 -11 -5 10 -4 9 3 12
7 6 8 8 8 7 6 7 7 7 7 7 8 8 9 10 11 8 12 12 14 14 15 17 16 7 4 7 6 4 1 5 5 8 8 8 4 3 -1 10 6 4 -3 -1 2
7 8 7 6 8 9 9 8 9 10 10 9 9 10 9 10 13 20 9 6 3 1 -0 4 13 12 9 3 11 7 7 9 8 6 2 4 -9 -3 -0 14 3 6 -6 -1 1
8 8 8 9 8 8 7 8 8 8 8 8 8 8 8 10 8 1 4 3 5 5 8 11 7 13 9 8 12 7 7 4 1 -0 4 2 4 11 10 8 9 10 3 -3 3
7 8 9 8 9 9 8 8 8 8 8 8 8 8 8 10 13 9 8 11 15 16 14 12 7 13 7 6 10 6 3 5 3 5 8 5 5 -1 5 4 6 7 23 5 -1
9 8 8 9 9 9 9 9 9 9 8 8 8 8 7 2 6 5 5 9 11 8 4 10 10 1 3 8 4 0 2 5 3 5 6 8 0 7 -0 5 4 1 18 14 15
10 10 9 11 10 9 10 9 9 8 9 7 7 7 11 6 6 12 8 7 7 8 9 6 7 6 8 6 -3 0 8 3 18 15 20 19 14 10 8 5 2 2 7 9 7
9 10 11 10 9 9 9 10 10 9 8 9 7 6 20 21 13 8 9 7 12 17 20 10 5 4 4 4 5 16 -1 1 4 12 25 30 19 15 -8 2 6 -3 24 8 3
8 7 3 8 8 10 9 9 10 10 9 7 7 15 26 9 -1 17 19 20 6 -0 6 17 15 9 4 7 -17 7 13 14 14 9 8 -6 2 6 4 8 14 -4 23 -13 30
1 3 7 8 11 1 3 9 8 10 10 10 -14 -10 -12 3 -1 10 26 -16 1 4 7 9 6 -2 5 13 16 15 5 4 11 22 14 12 9 15 -0 4 2 17 -11 7 11
7 6 6 6 7 4 9 8 9 4 22 3 8 10 12 10 3 8 8 -1 0 4 9 8 -3 6 9 9 6 12 13 9 8 1 4 5 6 10 5 13 15 39 15 -3 19
10 11 10 8 9 9 5 7 10 13 6 7 10 13 8 8 9 10 8 4 2 3 10 4 -41 53 25 16 5 5 3 -1 -1 8 4 -0 4 5 -4 6 -29 60 11 7 4
9 10 10 8 10 10 8 9 12 10 21 17 56 59 52 29 16 13 20 13 9 16 9 27 29 14 -3 -4 4 1 4 1 3 8 2 15 1 6 14 15 19 45 -5 5 -6
11 11 13 15 15 12 6 7 10 16 21 27 16 6 13 22 18 30 41 18 12 7 16 -10 2 12 24 17 10 7 15 2 8 16 18 18 8 -3 -12 3 18 38 8 3 -6
9 10 11 14 17 15 13 13 12 25 7 8 6 4 6 2 3 2 28 17 14 14 2 7 -3 -6 -2 2 -3 3 3 21 12 12 35 -0 -3 14 8 1 23 35 3 10 -7
9 9 10 11 13 15 14 14 24 -4 1 47 -15 -2 17 3 12 -7 9 14 -16 8 10 13 15 20 16 21 25 20 4 26 33 30 -6 18 44 -4 -23 16 26 29 9 22 -8
7 9 8 11 11 11 19 24 5 9 32 -37 4 10 7 45 10 6 9 4 -0 -11 -2 -1 40 4 -17 10 -16 19 27 -54 18 3 5 14 11 5 -12 -27 4 14 30 4 -2
11 9 11 7 11 11 19 16 -22 6 35 24 24 15 27 -2 28 20 4 4 55 18 -5 15 11 7 28 11 -4 22 22 16 7 10 4 -13 -10 -4 57 51 8 25 43 36 24
10 10 8 14 17 15 15 -5 5 20 -1 -33 6 -10 -10 -7 33 7 23 16 25 22 13 25 26 12 8 20 11 -4 17 28 26 5 8 15 16 -17 33 13 21 36 -4 7 48
9 7 25 22 16 17 4 -4 8 18 24 22 -3 4 1 7 -2 9 7 -9 -1 11 23 20 17 8 4 22 17 30 -11 10 18 16 -5 12 7 3 -12 -18 35 4 -2 36 23
9 9 33 26 16 7 5 12 9 6 8 2 -9 31 4 19 -1 7 -4 0 -2 17 21 -3 7 9 12 1 -11 -4 17 15 17 -0 9 13 14 7 18 19 41 -4 -25 33 -42
11 9 11 5 4 -1 34 3 22 12 14 20 24 22 -7 23 18 18 11 -11 8 3 11 9 8 14 31 37 33 13 -14 -24 19 17 22 17 5 -81 -18 -1 -5 25 -18 13 11
13 13 -6 7 15 26 11 8 5 16 12 45 20 -4 5 14 2 -14 -11 11 11 4 5 7 14 -1 -21 -23 -27 -7 -11 -21 0 11 -20 -4 -3 22 46 -7 31 40 6 21 56
4 8 14 -10 -10 -5 -6 -13 15 23 16 13 34 20 8 1 10 9 12 14 6 8 16 10 5 2 4 3 6 5 14 13 9 -9 6 -9 -2 15 9 3 13 -1 -1 6 -4
9 1 10 15 6 7 8 15 1 14 13 12 9 18 5 16 17 21 7 4 2 9 1 -3 24 20 3 5 1 6 9 -4 9 27 -2 17 2 4 9 14 1 4 30 -4 23
11 8 8 14 7 21 13 28 -8 -6 30 21 19 48 -6 -4 -1 9 22 4 -0 2 12 0 -2 13 21 17 24 38 23 37 46 21 2 4 3 -2 18 6 5 20 -4 -2 -2
Height
3122 3121 3119 3118 3117 3117 3116 3115 3115 3113 3112 3111 3111 3110 3108 3108 3108 3106 3106 3107 3108 3107 3108 3108 3111 3111 3111 3112 3112 3112 3108 3104 3106 3108 3108 3110 3110 3111 3114 3115 3114 3112 3110 3109 3107
3118 3116 3115 3114 3112 3111 3110 3110 3109 3109 3107 3105 3104 3104 3103 3102 3103 3102 3103 3101 3101 3101 3103 3103 3105 3104 3105 3108 3106 3105 3099 3098 3104 3105 3105 3105 3107 3108 3109 3110 3110 3109 3108 3105 3103
3113 3112 3111 3110 3109 3107 3105 3104 3104 3103 3102 3100 3099 3098 3096 3097 3097 3096 3096 3096 3096 3096 3097 3098 3099 3098 3099 3101 3101 3097 3091 3097 3099 3102 3103 3102 3100 3104 3103 3102 3103 3102 3102 3100 3099
3108 3106 3105 3105 3104 3102 3101 3099 3098 3097 3096 3095 3093 3092 3091 3092 3095 3090 3090 3091 3091 3092 3093 3093 3093 3093 3094 3094 3097 3090 3091 3093 3094 3098 3099 3098 3096 3093 3097 3096 3096 3095 3095 3093 3093
3101 3100 3099 3099 3097 3097 3094 3094 3092 3090 3089 3088 3087 3086 3085 3086 3088 3083 3085 3084 3086 3086 3087 3088 3088 3088 3088 3089 3092 3086 3087 3088 3091 3093 3093 3091 3089 3088 3087 3090 3090 3089 3090 3088 3087
3097 3095 3094 3091 3091 3090 3088 3087 3086 3085 3083 3081 3080 3080 3079 3081 3078 3078 3080 3080 3081 3080 3082 3082 3085 3086 3083 3083 3085 3084 3082 3082 3084 3085 3085 3083 3081 3083 3082 3085 3084 3083 3082 3083 3082
3091 3090 3088 3087 3085 3082 3082 3082 3080 3077 3077 3076 3074 3072 3072 3078 3072 3072 3074 3076 3076 3075 3077 3078 3079 3078 3078 3078 3079 3078 3076 3076 3078 3080 3079 3079 3068 3074 3080 3078 3075 3075 3074 3075 3076
3085 3084 3083 3081 3079 3076 3076 3075 3074 3072 3071 3070 3069 3065 3063 3069 3066 3068 3066 3069 3070 3070 3071 3073 3073 3073 3073 3074 3075 3073 3073 3066 3071 3075 3076 3076 3052 3069 3073 3071 3069 3068 3067 3067 3068
3080 3079 3078 3076 3072 3070 3069 3070 3068 3066 3064 3063 3062 3060 3059 3060 3061 3060 3062 3062 3063 3064 3065 3068 3066 3066 3069 3070 3070 3068 3062 3062 3064 3069 3069 3070 3055 3061 3065 3065 3062 3062 3061 3061 3061
3075 3073 3073 3071 3067 3064 3063 3063 3061 3058 3057 3056 3054 3057 3055 3055 3053 3054 3056 3058 3059 3058 3061 3061 3059 3059 3061 3064 3058 3060 3060 3057 3055 3060 3063 3059 3051 3053 3055 3057 3055 3054 3055 3056 3056
3070 3068 3067 3067 3064 3060 3057 3058 3059 3053 3050 3048 3047 3047 3049 3049 3049 3051 3052 3051 3053 3053 3054 3055 3053 3050 3055 3056 3058 3058 3056 3052 3053 3055 3054 3052 3046 3046 3048 3048 3046 3045 3047 3049 3048
3063 3062 3061 3063 3060 3056 3052 3052 3051 3048 3039 3043 3041 3037 3042 3045 3038 3044 3047 3047 3047 3047 3050 3050 3041 3048 3052 3052 3052 3052 3051 3047 3046 3051 3052 3046 3038 3039 3038 3038 3039 3035 3037 3041 3043
3057 3056 3055 3057 3055 3052 3049 3049 3049 3046 3035 3032 3034 3030 3033 3035 3031 3035 3039 3039 3040 3041 3041 3041 3042 3045 3045 3045 3047 3045 3046 3046 3044 3044 3044 3042 3031 3032 3031 3029 3028 3025 3029 3033 3036
3051 3050 3048 3051 3052 3048 3044 3047 3046 3044 3035 3021 3024 3021 3023 3025 3022 3027 3030 3033 3033 3034 3037 3035 3036 3038 3040 3038 3044 3037 3044 3043 3042 3042 3036 3039 3025 3025 3023 3021 3020 3019 3022 3026 3028
3046 3045 3043 3043 3045 3042 3041 3043 3044 3045 3041 3026 3023 3021 3018 3020 3021 3020 3021 3022 3024 3028 3033 3028 3030 3032 3032 3033 3039 3032 3038 3038 3038 3036 3034 3032 3030 3008 3019 3014 3011 3012 3017 3019 3023
3040 3039 3038 3038 3037 3036 3035 3038 3042 3046 3032 3023 3023 3022 3020 3019 3018 3017 3017 3020 3023 3026 3026 3023 3027 3027 3027 3029 3031 3032 3030 3030 3031 3031 3028 3027 3029 3001 3014 3011 3006 3008 3009 3010 3013
3035 3034 3032 3033 3033 3029 3030 3033 3038 3033 3029 3023 3019 3017 3017 3018 3017 3016 3016 3017 3018 3022 3021 3021 3020 3022 3025 3024 3024 3025 3026 3026 3027 3026 3018 3022 3021 3007 3010 3009 3008 3003 2999 2999 3001
3029 3028 3027 3028 3026 3025 3026 3030 3030 3025 3025 3020 3014 3015 3018 3017 3015 3014 3014 3013 3014 3017 3017 3016 3015 3016 3019 3019 3017 3015 3018 3020 3021 3021 3015 3016 3008 3007 3007 3007 3002 3000 2995 2993 2997
3023 3022 3023 3023 3021 3022 3023 3023 3020 3021 3023 3018 3012 3012 3012 3011 3012 3008 3008 3010 3012 3014 3014 3010 3009 3010 3012 3013 3014 3011 3008 3012 3012 3014 3014 3011 3006 3004 3004 2997 2996 2996 2992 2989 2990
3017 3016 3018 3016 3016 3017 3017 3014 3012 3014 3017 3016 3016 3013 3009 3008 3009 3006 3005 3007 3007 3007 3006 3004 3007 3005 3008 3009 3010 3008 3008 3009 3008 3013 3011 3004 3002 3000 2998 2994 2989 2993 2990 2985 2988
3011 3010 3012 3012 3012 3011 3009 3008 3007 3010 3014 3015 3012 3011 3009 3008 3009 3006 3005 3004 3003 3002 3001 3001 3005 3005 3006 3008 3005 3006 3006 3007 3007 3006 3005 3005 2999 2997 2995 2992 2989 2986 2988 2988 2985
3005 3006 3007 3008 3010 3007 3004 3006 3007 3005 3008 3008 3008 3008 3007 3006 3004 3004 3003 3001 3002 3001 3001 3002 3003 3002 3002 3004 3005 3006 3007 3009 3010 3006 3003 3001 2993 2999 2996 2992 2985 2980 2982 2983 2987
2999 2999 3006 3004 3003 3004 3002 3003 3001 3000 3001 3001 3001 3001 3001 3003 3001 2998 2998 3000 3001 3001 3000 3000 3000 3002 2999 3002 3001 3003 3009 3009 3008 3004 3003 3003 2995 2990 2993 2989 2982 2981 2976 2980 2977
2996 2996 2998 2999 3000 3000 3000 2998 2997 2999 2996 2995 2994 2995 2995 2997 2997 2994 2992 2996 2997 2999 2999 3000 3001 3001 3000 2999 3002 3001 2999 3002 3005 3004 2997 2996 2992 2991 2990 2986 2982 2981 2975 2977 2973
2992 2992 2995 2995 2996 2996 2997 2996 2994 2994 2993 2991 2989 2990 2992 2992 2992 2992 2991 2987 2991 2993 2995 2997 2997 2997 2995 2996 2999 2997 2996 2996 2999 3000 2996 2990 2990 2988 2988 2986 2982 2980 2976 2974 2971
2989 2991 2991 2991 2992 2993 2993 2990 2990 2989 2989 2987 2986 2985 2987 2988 2989 2988 2988 2989 2989 2991 2992 2993 2992 2991 2988 2991 2991 2989 2989 2990 2988 2990 2989 2988 2985 2988 2986 2982 2980 2980 2977 2976 2976
2985 2987 2987 2987 2988 2989 2988 2986 2986 2986 2985 2984 2981 2980 2984 2986 2986 2986 2986 2986 2986 2987 2988 2988 2988 2988 2984 2988 2988 2982 2978 2978 2976 2979 2982 2982 2982 2982 2982 2978 2977 2977 2978 2977 2977